TimeCDT,TemperatureF,Dew PointF,Humidity,Sea Level PressureIn,VisibilityMPH,Wind Direction,Wind SpeedMPH,Gust SpeedMPH,PrecipitationIn,Events,Conditions,WindDirDegrees,DateUTC
12:53 AM,80.1,71.1,74,29.94,10.0,Calm,Calm,-,N/A,,Clear,0,2013-06-14 05:53:00
1:53 AM,75.9,72.0,87,29.93,10.0,Calm,Calm,-,N/A,,Clear,0,2013-06-14 06:53:00
2:53 AM,77.0,71.1,82,29.92,10.0,Calm,Calm,-,N/A,,Clear,0,2013-06-14 07:53:00
3:53 AM,75.9,72.0,87,29.91,10.0,South,3.5,-,N/A,,Clear,190,2013-06-14 08:53:00
4:53 AM,73.9,71.1,91,29.92,10.0,Calm,Calm,-,N/A,,Clear,0,2013-06-14 09:53:00
5:53 AM,73.9,71.1,91,29.94,10.0,Calm,Calm,-,N/A,,Clear,0,2013-06-14 10:53:00
6:53 AM,73.9,71.1,91,29.96,10.0,Calm,Calm,-,N/A,,Clear,0,2013-06-14 11:53:00
7:53 AM,80.1,72.0,76,29.96,10.0,Calm,Calm,-,N/A,,Clear,0,2013-06-14 12:53:00
8:53 AM,84.9,68.0,57,29.98,10.0,SSW,4.6,-,N/A,,Clear,210,2013-06-14 13:53:00
9:53 AM,88.0,66.0,48,29.98,10.0,West,4.6,-,N/A,,Clear,260,2013-06-14 14:53:00
10:53 AM,90.0,68.0,48,29.97,10.0,SSW,6.9,-,N/A,,Clear,200,2013-06-14 15:53:00
11:53 AM,93.0,69.1,45,29.96,10.0,South,10.4,-,N/A,,Clear,190,2013-06-14 16:53:00
12:53 PM,93.0,68.0,44,29.95,10.0,South,8.1,-,N/A,,Clear,180,2013-06-14 17:53:00
1:53 PM,93.9,69.1,44,29.94,10.0,East,6.9,-,N/A,,Partly Cloudy,100,2013-06-14 18:53:00
2:53 PM,93.9,69.1,44,29.92,10.0,SE,8.1,-,N/A,,Partly Cloudy,130,2013-06-14 19:53:00
3:53 PM,93.9,66.0,40,29.92,10.0,SSE,9.2,-,N/A,,Clear,160,2013-06-14 20:53:00
4:53 PM,91.9,69.1,47,29.91,10.0,SE,5.8,-,N/A,,Clear,130,2013-06-14 21:53:00
5:53 PM,93.0,68.0,44,29.89,10.0,SSE,6.9,-,N/A,,Clear,150,2013-06-14 22:53:00
6:53 PM,93.0,66.9,42,29.88,10.0,SSE,4.6,-,N/A,,Clear,160,2013-06-14 23:53:00
7:53 PM,89.1,70.0,53,29.88,10.0,Calm,Calm,-,N/A,,Clear,0,2013-06-15 00:53:00
8:53 PM,84.9,73.9,69,29.89,10.0,East,3.5,-,N/A,,Clear,80,2013-06-15 01:53:00
9:53 PM,82.9,73.9,74,29.91,10.0,ESE,3.5,-,N/A,,Clear,110,2013-06-15 02:53:00
10:53 PM,82.0,73.9,76,29.93,10.0,Calm,Calm,-,N/A,,Clear,0,2013-06-15 03:53:00
11:53 PM,82.0,73.0,74,29.93,10.0,Calm,Calm,-,N/A,,Clear,0,2013-06-15 04:53:00